Weather History for Volk, WI

Change the Weather History Date:

Friday, March 29, 2013

  Actual Average Record
Temperature  
Mean Temperature 34 °F -  
Max Temperature 51 °F 47 °F 68 °F (2005)
Min Temperature 17 °F 32 °F 14 °F (2011)
Degree Days  
Heating Degree Days 32    
Moisture  
Dew Point 21 °F    
Average Humidity 65    
Maximum Humidity 93    
Minimum Humidity 32    
Precipitation  
Precipitation 0.00 in - - ()
Snow  
Snow 0.00 in - - ()
Snow Depth 2.00 in    
Sea Level Pressure  
Sea Level Pressure 30.29 in    
Wind  
Wind Speed 1 mph (SE)    
Max Wind Speed 6 mph    
Max Gust Speed -    
Visibility 10 miles    
Events      
Averages and records for this station are not official NWS values.
T = Trace of Precipitation, MM = Missing Value Source: NWS Daily Summary

Daily Weather History Graph

Daily Weather History Graph

Search for Another Location

Airport:

Trip Planner

Search our weather history database for the weather conditions in past years. The results will help you decide how hot, cold, wet, or windy it might be!

Date:

Astronomy

Mar. 29, 2013 Rise Set
Actual Time 6:47 AM CDT 7:24 PM CDT
Civil Twilight 6:18 AM CDT 7:53 PM CDT
Nautical Twilight 5:44 AM CDT 8:28 PM CDT
Astronomical Twilight 5:08 AM CDT 9:03 PM CDT
Moon 10:32 PM CDT (3/29) 7:50 AM CDT (3/29)
Length of Visible Light 13h 35m
Length of Day
12h 37m
Waning Gibbous, 93% of the Moon is Illuminated
Mar 29
Waning Gibbous
Apr 2
Last Quarter
Apr 10
New
Apr 18
First Quarter
Apr 25
Full

Hourly Weather History & Observations

Time (CDT) Temp. Windchill Dew Point Humidity Pressure Visibility Wind Dir Wind Speed Gust Speed Precip Events Conditions
12:55 AM 23.2 °F - 20.1 °F 88% 30.33 in 10.0 mi Calm Calm - N/A   Clear
1:55 AM 21.6 °F - 19.4 °F 91% 30.33 in 10.0 mi Calm Calm - N/A   Clear
2:55 AM 21.2 °F - 19.2 °F 92% 30.33 in 10.0 mi Calm Calm - N/A   Clear
3:55 AM 21.0 °F - 18.3 °F 89% 30.32 in 10.0 mi Calm Calm - N/A   Clear
4:55 AM 18.5 °F 13.3 °F 16.7 °F 93% 30.32 in 10.0 mi West 3.5 mph - N/A   Clear
5:55 AM 17.6 °F 12.3 °F 15.8 °F 93% 30.33 in 10.0 mi West 3.5 mph - N/A   Clear
6:55 AM 19.4 °F - 15.8 °F 86% 30.34 in 10.0 mi Calm Calm - N/A   Clear
7:55 AM 21.2 °F - 19.4 °F 93% 30.35 in 10.0 mi Calm Calm - N/A   Clear
8:55 AM 30.2 °F - 24.8 °F 80% 30.36 in 10.0 mi Calm Calm - N/A   Clear
9:55 AM 35.6 °F - 23.0 °F 60% 30.35 in 10.0 mi Calm Calm - N/A   Clear
10:55 AM 41.0 °F - 23.0 °F 49% 30.35 in 10.0 mi Calm Calm - N/A   Clear
11:55 AM 44.6 °F - 21.2 °F 39% 30.34 in 10.0 mi Calm Calm - N/A   Clear
12:55 PM 46.4 °F 43.5 °F 21.2 °F 37% 30.32 in 10.0 mi East 5.8 mph - N/A   Clear
1:55 PM 46.9 °F - 18.3 °F 32% 30.30 in 10.0 mi Calm Calm - N/A   Clear
2:55 PM 50.0 °F - 23.0 °F 35% 30.29 in 10.0 mi Variable 3.5 mph - N/A   Clear
3:55 PM 48.7 °F - 21.4 °F 34% 30.27 in 10.0 mi South 4.6 mph - N/A   Clear
4:55 PM 49.3 °F - 22.6 °F 35% 30.25 in 10.0 mi ESE 3.5 mph - N/A   Clear
5:55 PM 49.8 °F - 21.4 °F 33% 30.25 in 10.0 mi Calm Calm - N/A   Clear
6:55 PM 46.6 °F - 20.1 °F 35% 30.24 in 10.0 mi Calm Calm - N/A   Clear
7:55 PM 36.3 °F 33.7 °F 25.7 °F 65% 30.23 in 10.0 mi SE 3.5 mph - N/A   Mostly Cloudy
8:55 PM 35.4 °F 31.5 °F 22.8 °F 60% 30.23 in 10.0 mi SSE 4.6 mph - N/A   Clear
9:55 PM 30.7 °F 26.0 °F 23.2 °F 74% 30.22 in 10.0 mi SE 4.6 mph - N/A   Partly Cloudy
10:55 PM 28.4 °F 23.3 °F 23.9 °F 83% 30.22 in 10.0 mi ESE 4.6 mph - N/A   Mostly Cloudy
11:55 PM 29.8 °F 26.3 °F 24.8 °F 81% 30.21 in 10.0 mi ESE 3.5 mph - N/A   Overcast